Location: Alphen
(52.1351°N, 4.6549°E)
Time: 01:42:25
(UTC+00:00)

Cosmos 1697 Rocket - Pass Details

Date: 27 January 2021
Orbit: 832 x 844 km, 71.0° (Epoch: 26 February)

Event Time Altitude Azimuth Distance (km) Brightness Sun altitude
Exits shadow 06:48:55 - 329° (NNW) 3,363 5.3 -6.4°
Reaches altitude 10° 06:51:46 10° 343° (NNW) 2,474 4.8 -6.0°
Maximum altitude 06:56:12 23° 35° (NE) 1,730 4.5 -5.3°
Drops below altitude 10° 07:00:38 10° 87° (E) 2,462 6.3 -4.7°
Sets 07:03:36 0° 102° (ESE) 3,391 7.9 -4.3°
